Hourly Weather Bolshie Novoselki

Today, 20 June, Sunday

Time Temperature Precipitation Wind Pressure Humidity
00:00 +19°C° 0 mm 2 mps 745 mmHg 90%
01:00 +19°C° 0 mm 2 mps 745 mmHg 91%
02:00 +19°C° 0 mm 2 mps 746 mmHg 92%
03:00 +19°C° 0.1 mm 2 mps 745 mmHg 92%
04:00 +19°C° 0.1 mm 2 mps 745 mmHg 93%
05:00 +19°C° 0.1 mm 2 mps 745 mmHg 94%
06:00 +21°C° 0 mm 2 mps 745 mmHg 89%
07:00 +22°C° 0 mm 3 mps 745 mmHg 84%
08:00 +25°C° 0 mm 4 mps 745 mmHg 78%
09:00 +26°C° 0 mm 4 mps 745 mmHg 73%
10:00 +27°C° 0 mm 4 mps 745 mmHg 68%
11:00 +28°C° 0 mm 5 mps 745 mmHg 62%
12:00 +29°C° 0 mm 4 mps 745 mmHg 60%
13:00 +29°C° 0 mm 4 mps 745 mmHg 57%
14:00 +30°C° 0 mm 4 mps 744 mmHg 55%
15:00 +30°C° 0.1 mm 4 mps 744 mmHg 58%
16:00 +29°C° 0.1 mm 4 mps 744 mmHg 62%
17:00 +29°C° 0.1 mm 3 mps 744 mmHg 65%
18:00 +27°C° 0 mm 3 mps 743 mmHg 71%
19:00 +26°C° 0 mm 3 mps 743 mmHg 77%
20:00 +24°C° 0 mm 3 mps 743 mmHg 82%
21:00 +22°C° 0 mm 3 mps 743 mmHg 84%
22:00 +21°C° 0 mm 3 mps 743 mmHg 86%
23:00 +20°C° 0 mm 3 mps 743 mmHg 89%

Tomorrow, 21 June, Monday

Time Temperature Precipitation Wind Pressure Humidity
00:00 +20°C° 0 mm 3 mps 743 mmHg 89%
01:00 +19°C° 0 mm 2 mps 743 mmHg 90%
02:00 +19°C° 0 mm 2 mps 743 mmHg 91%
03:00 +19°C° 0 mm 2 mps 743 mmHg 92%
04:00 +19°C° 0 mm 2 mps 743 mmHg 92%
05:00 +19°C° 0 mm 2 mps 743 mmHg 93%
06:00 +20°C° 0 mm 3 mps 743 mmHg 87%
07:00 +22°C° 0 mm 4 mps 742 mmHg 81%
08:00 +23°C° 0 mm 5 mps 742 mmHg 76%
09:00 +26°C° 0 mm 5 mps 742 mmHg 70%
10:00 +27°C° 0 mm 5 mps 742 mmHg 64%
11:00 +28°C° 0 mm 5 mps 742 mmHg 58%
12:00 +29°C° 0 mm 5 mps 742 mmHg 56%
13:00 +29°C° 0 mm 5 mps 742 mmHg 53%
14:00 +30°C° 0 mm 5 mps 742 mmHg 50%
15:00 +30°C° 0 mm 5 mps 741 mmHg 54%
16:00 +29°C° 0 mm 5 mps 741 mmHg 57%
17:00 +29°C° 0 mm 5 mps 741 mmHg 60%
18:00 +27°C° 0 mm 4 mps 741 mmHg 67%
19:00 +26°C° 0 mm 4 mps 740 mmHg 74%
20:00 +25°C° 0 mm 3 mps 740 mmHg 81%
21:00 +24°C° 0 mm 3 mps 740 mmHg 83%
22:00 +22°C° 0 mm 3 mps 740 mmHg 85%
23:00 +21°C° 0 mm 3 mps 740 mmHg 87%

Day after tomorrow, 22 June, Tuesday

Time Temperature Precipitation Wind Pressure Humidity
00:00 +21°C° 0 mm 3 mps 740 mmHg 90%
01:00 +20°C° 0 mm 3 mps 740 mmHg 92%
02:00 +19°C° 0 mm 3 mps 740 mmHg 95%
03:00 +20°C° 0 mm 3 mps 741 mmHg 95%
04:00 +20°C° 0 mm 2 mps 741 mmHg 96%
05:00 +20°C° 0 mm 2 mps 741 mmHg 96%
06:00 +21°C° 0 mm 3 mps 741 mmHg 90%
07:00 +24°C° 0 mm 3 mps 741 mmHg 84%
08:00 +25°C° 0 mm 4 mps 741 mmHg 78%
09:00 +27°C° 0 mm 4 mps 742 mmHg 73%
10:00 +28°C° 0 mm 5 mps 742 mmHg 68%
11:00 +29°C° 0 mm 5 mps 742 mmHg 63%
12:00 +29°C° 0 mm 4 mps 742 mmHg 60%
13:00 +30°C° 0 mm 4 mps 742 mmHg 57%
14:00 +32°C° 0 mm 4 mps 742 mmHg 54%
15:00 +32°C° 0 mm 4 mps 742 mmHg 56%
16:00 +31°C° 0 mm 3 mps 742 mmHg 58%
17:00 +31°C° 0 mm 3 mps 742 mmHg 60%
18:00 +29°C° 0.1 mm 3 mps 741 mmHg 66%
19:00 +28°C° 0.1 mm 2 mps 741 mmHg 72%
20:00 +26°C° 0.1 mm 2 mps 741 mmHg 78%
21:00 +25°C° 0.3 mm 2 mps 742 mmHg 82%
22:00 +24°C° 0.3 mm 2 mps 742 mmHg 85%
23:00 +21°C° 0.3 mm 3 mps 742 mmHg 88%

23 June, Wednesday

Time Temperature Precipitation Wind Pressure Humidity
00:00 +21°C° 0.2 mm 3 mps 742 mmHg 90%
01:00 +20°C° 0.2 mm 3 mps 742 mmHg 91%
02:00 +19°C° 0.2 mm 3 mps 742 mmHg 92%
03:00 +19°C° 0 mm 3 mps 742 mmHg 92%
04:00 +19°C° 0 mm 2 mps 743 mmHg 93%
05:00 +19°C° 0 mm 2 mps 743 mmHg 93%
06:00 +21°C° 0 mm 3 mps 743 mmHg 87%
07:00 +22°C° 0 mm 3 mps 743 mmHg 82%
08:00 +25°C° 0 mm 4 mps 743 mmHg 76%
09:00 +26°C° 0 mm 4 mps 744 mmHg 70%
10:00 +28°C° 0 mm 3 mps 744 mmHg 63%
11:00 +29°C° 0 mm 3 mps 744 mmHg 57%
12:00 +30°C° 0 mm 3 mps 744 mmHg 55%
13:00 +31°C° 0 mm 3 mps 744 mmHg 52%
14:00 +31°C° 0 mm 3 mps 744 mmHg 50%
15:00 +31°C° 0 mm 3 mps 744 mmHg 53%
16:00 +31°C° 0 mm 3 mps 744 mmHg 56%
17:00 +31°C° 0 mm 2 mps 744 mmHg 60%
18:00 +30°C° 0 mm 2 mps 744 mmHg 64%
19:00 +28°C° 0 mm 1 mps 744 mmHg 69%
20:00 +27°C° 0 mm 1 mps 744 mmHg 74%
21:00 +26°C° 0.1 mm 1 mps 744 mmHg 77%
22:00 +25°C° 0.1 mm 2 mps 744 mmHg 81%
23:00 +24°C° 0.1 mm 2 mps 744 mmHg 84%

24 June, Thursday

Time Temperature Precipitation Wind Pressure Humidity
00:00 +24°C° 0.1 mm 2 mps 744 mmHg 87%
01:00 +23°C° 0.1 mm 2 mps 744 mmHg 90%
02:00 +23°C° 0.1 mm 2 mps 744 mmHg 93%
03:00 +23°C° 0 mm 2 mps 744 mmHg 93%
04:00 +21°C° 0 mm 2 mps 744 mmHg 93%
05:00 +21°C° 0 mm 2 mps 744 mmHg 93%
06:00 +24°C° 0 mm 2 mps 744 mmHg 87%
07:00 +25°C° 0 mm 3 mps 744 mmHg 81%
08:00 +27°C° 0 mm 3 mps 744 mmHg 76%
09:00 +28°C° 0 mm 3 mps 744 mmHg 69%
10:00 +29°C° 0 mm 4 mps 744 mmHg 63%
11:00 +32°C° 0 mm 4 mps 744 mmHg 56%
12:00 +32°C° 0 mm 4 mps 744 mmHg 54%
13:00 +33°C° 0 mm 3 mps 744 mmHg 51%
14:00 +33°C° 0 mm 3 mps 744 mmHg 48%
15:00 +33°C° 0 mm 3 mps 743 mmHg 52%
16:00 +33°C° 0 mm 3 mps 743 mmHg 55%
17:00 +31°C° 0 mm 3 mps 742 mmHg 58%
18:00 +29°C° 0.3 mm 3 mps 742 mmHg 66%
19:00 +27°C° 0.3 mm 3 mps 742 mmHg 74%
20:00 +23°C° 0.3 mm 4 mps 743 mmHg 82%
21:00 +22°C° 1.6 mm 3 mps 742 mmHg 86%
22:00 +20°C° 1.6 mm 2 mps 742 mmHg 90%
23:00 +19°C° 1.6 mm 2 mps 742 mmHg 93%

25 June, Friday

Time Temperature Precipitation Wind Pressure Humidity
00:00 +19°C° 0.1 mm 2 mps 742 mmHg 93%
01:00 +19°C° 0.1 mm 2 mps 742 mmHg 92%
02:00 +19°C° 0.1 mm 2 mps 741 mmHg 91%
03:00 +19°C° 0.5 mm 2 mps 741 mmHg 92%
04:00 +19°C° 0.5 mm 2 mps 741 mmHg 92%
05:00 +19°C° 0.5 mm 2 mps 741 mmHg 93%
06:00 +20°C° 0.1 mm 2 mps 741 mmHg 91%
07:00 +21°C° 0.1 mm 3 mps 741 mmHg 89%
08:00 +22°C° 0.1 mm 3 mps 741 mmHg 87%
09:00 +25°C° 0.1 mm 3 mps 741 mmHg 81%
10:00 +27°C° 0.1 mm 4 mps 741 mmHg 74%
11:00 +29°C° 0.1 mm 4 mps 741 mmHg 68%
12:00 +29°C° 0.7 mm 4 mps 741 mmHg 68%
13:00 +30°C° 0.7 mm 4 mps 741 mmHg 67%
14:00 +30°C° 0.7 mm 4 mps 740 mmHg 67%
15:00 +30°C° 0.1 mm 4 mps 740 mmHg 67%
16:00 +30°C° 0.1 mm 3 mps 739 mmHg 67%
17:00 +30°C° 0.1 mm 3 mps 739 mmHg 67%
18:00 +29°C° 0.4 mm 3 mps 739 mmHg 71%
19:00 +27°C° 0.4 mm 2 mps 738 mmHg 75%
20:00 +26°C° 0.4 mm 2 mps 738 mmHg 79%
21:00 +24°C° 1.2 mm 2 mps 738 mmHg 84%
22:00 +20°C° 1.2 mm 3 mps 739 mmHg 89%
23:00 +18°C° 1.2 mm 3 mps 739 mmHg 93%
Show more